Location: ??
(34.7252°N, 135.5457°E)
Time: 07:59:13
(UTC+00:00)

Cosmos 1898 Rocket - Pass Details

Date: 24 September 2020
Orbit: 753 x 784 km, 74.0° (Epoch: 28 October)

Event Time Altitude Azimuth Distance (km) Brightness Sun altitude
Rises 18:31:37 0° 345° (NNW) 3,244 6.8 -28.3°
Reaches altitude 10° 18:34:00 10° 347° (NNW) 2,319 6.0 -27.8°
Maximum altitude 18:39:15 71° 72° (ENE) 818 3.7 -26.8°
Drops below altitude 10° 18:44:32 10° 156° (SSE) 2,323 6.0 -25.8°
Sets 18:46:55 0° 159° (SSE) 3,251 6.8 -25.3°
